Time,TemperatureF,DewpointF,PressureIn,WindDirection,WindDirectionDegrees,WindSpeedMPH,WindSpeedGustMPH,Humidity,HourlyPrecipIn,Conditions,Clouds,dailyrainin,SoftwareType,DateUTC
2015-07-01 00:00:00,70.6,70.0,30.05,SE,139,0.0,2.0,97,0.00,,,0.00,weatherlink.com 1.10,2015-07-01 05:00:00,
2015-07-01 00:10:00,70.5,69.9,30.04,SE,132,0.0,1.0,98,0.00,,,0.00,Wunderground v.1.15,2015-07-01 05:10:00,
2015-07-01 00:15:00,70.5,69.9,30.04,East,98,0.0,1.0,98,0.00,,,0.00,Wunderground v.1.15,2015-07-01 05:15:00,
2015-07-01 00:20:00,70.4,69.8,30.04,West,278,0.0,1.0,98,0.00,,,0.00,Wunderground v.1.15,2015-07-01 05:20:00,
2015-07-01 00:25:00,70.5,69.9,30.04,WNW,284,0.0,1.0,98,0.00,,,0.00,Wunderground v.1.15,2015-07-01 05:25:00,
2015-07-01 00:31:00,70.4,70.0,30.04,ESE,115,0.0,1.0,98,0.00,,,0.00,weatherlink.com 1.10,2015-07-01 05:31:00,
2015-07-01 00:40:00,70.3,69.7,30.05,East,85,0.0,1.0,98,0.00,,,0.00,Wunderground v.1.15,2015-07-01 05:40:00,
2015-07-01 00:46:00,70.3,70.0,30.05,East,82,0.0,1.0,98,0.00,,,0.00,weatherlink.com 1.10,2015-07-01 05:46:00,
2015-07-01 00:55:00,70.2,69.6,30.06,East,82,0.0,1.0,98,0.00,,,0.00,Wunderground v.1.15,2015-07-01 05:55:00,
2015-07-01 01:00:00,70.1,69.5,30.06,East,82,0.0,1.0,98,0.00,,,0.00,Wunderground v.1.15,2015-07-01 06:00:00,
2015-07-01 01:05:00,70.0,69.4,30.06,East,82,0.0,1.0,98,0.00,,,0.00,Wunderground v.1.15,2015-07-01 06:05:00,
2015-07-01 01:15:00,70.0,69.4,30.06,East,84,0.0,1.0,98,0.00,,,0.00,Wunderground v.1.15,2015-07-01 06:15:00,
2015-07-01 01:20:00,70.0,69.4,30.07,East,83,0.0,1.0,98,0.00,,,0.00,Wunderground v.1.15,2015-07-01 06:20:00,
2015-07-01 01:25:00,70.0,69.4,30.07,East,84,0.0,1.0,98,0.00,,,0.00,Wunderground v.1.15,2015-07-01 06:25:00,
2015-07-01 01:31:00,70.0,69.0,30.07,North,8,1.0,1.0,98,0.00,,,0.00,weatherlink.com 1.10,2015-07-01 06:31:00,
2015-07-01 01:40:00,70.0,69.4,30.07,North,6,0.0,1.0,98,0.00,,,0.00,Wunderground v.1.15,2015-07-01 06:40:00,
2015-07-01 01:46:00,70.0,69.0,30.07,North,6,0.0,0.0,98,0.00,,,0.00,weatherlink.com 1.10,2015-07-01 06:46:00,
2015-07-01 01:55:00,69.7,69.1,30.07,North,6,0.0,1.0,98,0.00,,,0.00,Wunderground v.1.15,2015-07-01 06:55:00,
2015-07-01 02:00:00,69.7,69.1,30.07,North,6,0.0,1.0,98,0.00,,,0.00,Wunderground v.1.15,2015-07-01 07:00:00,
2015-07-01 02:10:00,69.6,69.0,30.07,North,6,0.0,1.0,98,0.00,,,0.00,Wunderground v.1.15,2015-07-01 07:10:00,
2015-07-01 02:15:00,69.6,69.0,30.07,North,6,0.0,1.0,98,0.00,,,0.00,Wunderground v.1.15,2015-07-01 07:15:00,
2015-07-01 02:25:00,69.5,68.9,30.07,North,6,0.0,1.0,98,0.00,,,0.00,Wunderground v.1.15,2015-07-01 07:25:00,
2015-07-01 02:30:00,69.5,69.2,30.06,North,6,0.0,1.0,99,0.00,,,0.00,Wunderground v.1.15,2015-07-01 07:30:00,
2015-07-01 02:35:00,69.5,69.2,30.06,North,5,0.0,1.0,99,0.00,,,0.00,Wunderground v.1.15,2015-07-01 07:35:00,
2015-07-01 02:45:00,69.5,69.2,30.06,North,4,0.0,1.0,99,0.00,,,0.00,Wunderground v.1.15,2015-07-01 07:45:00,
2015-07-01 02:50:00,69.3,69.0,30.06,North,4,0.0,1.0,99,0.00,,,0.00,Wunderground v.1.15,2015-07-01 07:50:00,
2015-07-01 03:00:00,69.4,69.1,30.06,North,4,0.0,1.0,99,0.00,,,0.00,Wunderground v.1.15,2015-07-01 08:00:00,
2015-07-01 03:05:00,69.4,69.1,30.06,North,4,0.0,1.0,99,0.00,,,0.00,Wunderground v.1.15,2015-07-01 08:05:00,
2015-07-01 03:10:00,69.5,69.2,30.05,North,4,0.0,1.0,99,0.00,,,0.00,Wunderground v.1.15,2015-07-01 08:10:00,
2015-07-01 03:16:00,69.5,69.0,30.05,North,4,0.0,0.0,99,0.00,,,0.00,weatherlink.com 1.10,2015-07-01 08:16:00,
2015-07-01 03:25:00,69.4,69.1,30.05,North,4,0.0,1.0,99,0.00,,,0.00,Wunderground v.1.15,2015-07-01 08:25:00,
2015-07-01 03:31:00,69.4,69.0,30.05,North,4,0.0,0.0,99,0.00,,,0.00,weatherlink.com 1.10,2015-07-01 08:31:00,
2015-07-01 03:40:00,69.3,69.0,30.05,North,4,0.0,1.0,99,0.00,,,0.00,Wunderground v.1.15,2015-07-01 08:40:00,
2015-07-01 03:45:00,69.2,68.9,30.05,North,4,0.0,1.0,99,0.00,,,0.00,Wunderground v.1.15,2015-07-01 08:45:00,
2015-07-01 03:55:00,69.2,68.9,30.05,North,4,0.0,1.0,99,0.00,,,0.00,Wunderground v.1.15,2015-07-01 08:55:00,
2015-07-01 04:00:00,69.2,68.9,30.05,North,4,0.0,1.0,99,0.00,,,0.00,Wunderground v.1.15,2015-07-01 09:00:00,
2015-07-01 04:10:00,69.1,68.8,30.04,North,4,0.0,1.0,99,0.00,,,0.00,Wunderground v.1.15,2015-07-01 09:10:00,
2015-07-01 04:15:00,69.2,68.9,30.04,North,4,0.0,1.0,99,0.00,,,0.00,Wunderground v.1.15,2015-07-01 09:15:00,
2015-07-01 04:20:00,69.2,68.9,30.04,North,4,0.0,1.0,99,0.00,,,0.00,Wunderground v.1.15,2015-07-01 09:20:00,
2015-07-01 04:30:00,69.3,69.0,30.04,North,4,0.0,1.0,99,0.00,,,0.00,Wunderground v.1.15,2015-07-01 09:30:00,
2015-07-01 04:35:00,69.3,69.0,30.04,North,3,0.0,1.0,99,0.00,,,0.00,Wunderground v.1.15,2015-07-01 09:35:00,
2015-07-01 04:40:00,69.2,68.9,30.03,North,4,0.0,1.0,99,0.00,,,0.00,Wunderground v.1.15,2015-07-01 09:40:00,
2015-07-01 04:50:00,69.2,68.9,30.03,North,4,0.0,1.0,99,0.00,,,0.00,Wunderground v.1.15,2015-07-01 09:50:00,
2015-07-01 05:00:00,69.3,69.0,30.03,North,4,0.0,0.0,99,0.00,,,0.00,weatherlink.com 1.10,2015-07-01 10:00:00,
2015-07-01 05:05:00,69.5,69.2,30.03,North,3,0.0,1.0,99,0.00,,,0.00,Wunderground v.1.15,2015-07-01 10:05:00,
2015-07-01 05:10:00,69.4,69.1,30.04,North,4,0.0,1.0,99,0.00,,,0.00,Wunderground v.1.15,2015-07-01 10:10:00,
2015-07-01 05:20:00,69.6,69.3,30.03,North,4,0.0,1.0,99,0.00,,,0.00,Wunderground v.1.15,2015-07-01 10:20:00,
2015-07-01 05:25:00,69.7,69.4,30.03,North,4,0.0,1.0,99,0.00,,,0.00,Wunderground v.1.15,2015-07-01 10:25:00,
2015-07-01 05:35:00,69.7,69.4,30.04,North,4,0.0,1.0,99,0.00,,,0.00,Wunderground v.1.15,2015-07-01 10:35:00,
2015-07-01 05:40:00,69.8,69.5,30.04,North,4,0.0,1.0,99,0.00,,,0.00,Wunderground v.1.15,2015-07-01 10:40:00,
2015-07-01 05:45:00,69.9,69.6,30.04,North,1,0.0,1.0,99,0.00,,,0.00,Wunderground v.1.15,2015-07-01 10:45:00,
2015-07-01 05:55:00,69.8,69.5,30.04,North,1,0.0,1.0,99,0.00,,,0.00,Wunderground v.1.15,2015-07-01 10:55:00,
2015-07-01 06:00:00,69.8,69.5,30.04,North,1,0.0,1.0,99,0.00,,,0.00,Wunderground v.1.15,2015-07-01 11:00:00,
2015-07-01 06:10:00,69.8,69.5,30.04,North,1,0.0,1.0,99,0.00,,,0.00,Wunderground v.1.15,2015-07-01 11:10:00,
2015-07-01 06:15:00,69.7,69.4,30.04,North,1,0.0,1.0,99,0.00,,,0.00,Wunderground v.1.15,2015-07-01 11:15:00,
2015-07-01 06:25:00,69.8,69.5,30.04,North,1,0.0,1.0,99,0.00,,,0.00,Wunderground v.1.15,2015-07-01 11:25:00,
2015-07-01 06:30:00,69.9,69.6,30.04,North,1,0.0,1.0,99,0.00,,,0.00,Wunderground v.1.15,2015-07-01 11:30:00,
2015-07-01 06:35:00,70.1,69.8,30.04,North,1,0.0,1.0,99,0.00,,,0.00,Wunderground v.1.15,2015-07-01 11:35:00,
2015-07-01 06:45:00,70.6,70.0,30.04,North,1,0.0,0.0,99,0.00,,,0.00,weatherlink.com 1.10,2015-07-01 11:45:00,
2015-07-01 06:50:00,70.9,70.6,30.04,North,1,0.0,1.0,99,0.00,,,0.00,Wunderground v.1.15,2015-07-01 11:50:00,
2015-07-01 07:00:00,71.8,72.0,30.05,North,1,0.0,0.0,99,0.00,,,0.00,weatherlink.com 1.10,2015-07-01 12:00:00,
2015-07-01 07:05:00,72.2,71.9,30.05,North,5,0.0,1.0,99,0.00,,,0.00,Wunderground v.1.15,2015-07-01 12:05:00,
2015-07-01 07:15:00,72.7,72.0,30.05,North,6,0.0,1.0,99,0.00,,,0.00,weatherlink.com 1.10,2015-07-01 12:15:00,
2015-07-01 07:20:00,73.4,73.1,30.06,North,5,0.0,1.0,99,0.00,,,0.00,Wunderground v.1.15,2015-07-01 12:20:00,
2015-07-01 07:25:00,74.2,73.9,30.06,North,5,0.0,1.0,99,0.00,,,0.00,Wunderground v.1.15,2015-07-01 12:25:00,
2015-07-01 07:35:00,75.3,74.7,30.06,North,5,0.0,1.0,98,0.00,,,0.00,Wunderground v.1.15,2015-07-01 12:35:00,
2015-07-01 07:40:00,75.9,75.3,30.06,North,6,0.0,1.0,98,0.00,,,0.00,Wunderground v.1.15,2015-07-01 12:40:00,
2015-07-01 07:50:00,76.5,75.0,30.06,North,360,0.0,1.0,95,0.00,,,0.00,Wunderground v.1.15,2015-07-01 12:50:00,
2015-07-01 07:55:00,77.0,75.5,30.06,North,8,0.0,1.0,95,0.00,,,0.00,Wunderground v.1.15,2015-07-01 12:55:00,
2015-07-01 08:00:00,77.5,76.0,30.06,North,9,0.0,1.0,95,0.00,,,0.00,Wunderground v.1.15,2015-07-01 13:00:00,
2015-07-01 08:10:00,78.9,76.7,30.06,ESE,102,0.0,1.0,93,0.00,,,0.00,Wunderground v.1.15,2015-07-01 13:10:00,
2015-07-01 08:15:00,80.0,77.1,30.06,SW,224,0.0,1.0,91,0.00,,,0.00,Wunderground v.1.15,2015-07-01 13:15:00,
2015-07-01 08:25:00,81.0,77.8,30.07,SE,143,0.0,1.0,90,0.00,,,0.00,Wunderground v.1.15,2015-07-01 13:25:00,
2015-07-01 08:35:00,81.4,78.2,30.07,SSE,160,0.0,1.0,90,0.00,,,0.00,Wunderground v.1.15,2015-07-01 13:35:00,
2015-07-01 08:45:00,81.5,78.0,30.08,SW,219,0.0,2.0,90,0.00,,,0.00,weatherlink.com 1.10,2015-07-01 13:45:00,
2015-07-01 08:50:00,81.5,78.3,30.08,SW,235,1.0,4.0,90,0.00,,,0.00,Wunderground v.1.15,2015-07-01 13:50:00,
2015-07-01 08:55:00,81.5,78.6,30.08,SW,226,2.0,3.0,91,0.00,,,0.00,Wunderground v.1.15,2015-07-01 13:55:00,
2015-07-01 09:05:00,81.7,78.8,30.08,SW,215,3.0,3.0,91,0.00,,,0.00,Wunderground v.1.15,2015-07-01 14:05:00,
2015-07-01 09:15:00,82.4,79.2,30.08,South,188,3.0,3.0,90,0.00,,,0.00,Wunderground v.1.15,2015-07-01 14:15:00,
2015-07-01 09:30:00,83.0,79.4,30.08,South,179,2.0,3.0,89,0.00,,,0.00,Wunderground v.1.15,2015-07-01 14:30:00,
2015-07-01 09:40:00,83.2,79.3,30.08,SSW,206,3.0,5.0,88,0.00,,,0.00,Wunderground v.1.15,2015-07-01 14:40:00,
2015-07-01 09:45:00,83.3,79.7,30.08,SW,223,3.0,3.0,89,0.00,,,0.00,Wunderground v.1.15,2015-07-01 14:45:00,
2015-07-01 09:50:00,83.6,79.7,30.08,SE,131,3.0,5.0,88,0.00,,,0.00,Wunderground v.1.15,2015-07-01 14:50:00,
2015-07-01 10:00:00,84.0,79.7,30.08,SSW,200,3.0,3.0,87,0.00,,,0.00,Wunderground v.1.15,2015-07-01 15:00:00,
2015-07-01 10:05:00,84.2,79.9,30.08,SSW,200,4.0,4.0,87,0.00,,,0.00,Wunderground v.1.15,2015-07-01 15:05:00,
2015-07-01 10:15:00,85.3,80.3,30.08,SW,235,3.0,7.0,85,0.00,,,0.00,Wunderground v.1.15,2015-07-01 15:15:00,
2015-07-01 10:25:00,84.9,79.5,30.08,SW,235,7.0,9.0,84,0.00,,,0.00,Wunderground v.1.15,2015-07-01 15:25:00,
2015-07-01 10:31:00,84.9,80.0,30.09,SSE,159,4.0,12.0,84,0.00,,,0.00,weatherlink.com 1.10,2015-07-01 15:31:00,
2015-07-01 10:40:00,85.4,79.6,30.09,SW,220,6.0,13.0,83,0.00,,,0.00,Wunderground v.1.15,2015-07-01 15:40:00,
2015-07-01 10:47:00,86.1,79.0,30.09,SW,226,12.0,14.0,80,0.00,,,0.00,weatherlink.com 1.10,2015-07-01 15:47:00,
2015-07-01 10:55:00,86.6,79.7,30.09,SSW,200,7.0,7.0,80,0.00,,,0.00,Wunderground v.1.15,2015-07-01 15:55:00,
2015-07-01 11:00:00,86.4,79.1,30.09,SW,226,6.0,7.0,79,0.00,,,0.00,Wunderground v.1.15,2015-07-01 16:00:00,
2015-07-01 11:05:00,85.9,79.4,30.09,West,273,5.0,5.0,81,0.00,,,0.00,Wunderground v.1.15,2015-07-01 16:05:00,
2015-07-01 11:15:00,84.7,79.3,30.08,WSW,254,4.0,5.0,84,0.00,,,0.01,Wunderground v.1.15,2015-07-01 16:15:00,
2015-07-01 11:20:00,85.2,80.2,30.08,SW,226,3.0,5.0,85,0.00,,,0.01,Wunderground v.1.15,2015-07-01 16:20:00,
2015-07-01 11:30:00,86.2,80.1,30.08,SW,222,4.0,11.0,82,0.00,,,0.01,Wunderground v.1.15,2015-07-01 16:30:00,
2015-07-01 11:35:00,86.6,79.7,30.08,WSW,238,8.0,8.0,80,0.00,,,0.01,Wunderground v.1.15,2015-07-01 16:35:00,
2015-07-01 11:45:00,86.8,79.5,30.09,SW,231,8.0,8.0,79,0.00,,,0.01,Wunderground v.1.15,2015-07-01 16:45:00,
2015-07-01 11:55:00,85.1,77.1,30.09,WNW,283,10.0,10.0,77,0.00,,,0.01,Wunderground v.1.15,2015-07-01 16:55:00,
2015-07-01 12:02:00,81.5,75.0,30.09,WNW,293,9.0,17.0,80,0.01,,,0.01,weatherlink.com 1.10,2015-07-01 17:02:00,
2015-07-01 12:11:00,79.0,72.7,30.10,NW,313,6.0,6.0,81,0.00,,,0.01,Wunderground v.1.15,2015-07-01 17:11:00,
2015-07-01 12:18:00,78.3,73.0,30.10,West,274,2.0,8.0,85,0.00,,,0.01,weatherlink.com 1.10,2015-07-01 17:18:00,
2015-07-01 12:25:00,78.5,74.0,30.09,East,99,1.0,1.0,86,0.00,,,0.01,Wunderground v.1.15,2015-07-01 17:25:00,
2015-07-01 12:30:00,78.6,75.1,30.10,East,85,1.0,1.0,89,0.00,,,0.01,Wunderground v.1.15,2015-07-01 17:30:00,
2015-07-01 12:40:00,79.2,74.3,30.09,WSW,248,1.0,1.0,85,0.00,,,0.01,Wunderground v.1.15,2015-07-01 17:40:00,
2015-07-01 12:45:00,79.5,72.4,30.08,SW,231,1.0,4.0,79,0.00,,,0.01,Wunderground v.1.15,2015-07-01 17:45:00,
2015-07-01 12:55:00,79.9,71.7,30.07,SW,225,3.0,3.0,76,0.00,,,0.01,Wunderground v.1.15,2015-07-01 17:55:00,
2015-07-01 13:00:00,80.1,71.8,30.08,SW,224,1.0,3.0,76,0.00,,,0.01,Wunderground v.1.15,2015-07-01 18:00:00,
2015-07-01 13:05:00,80.2,72.3,30.09,SW,235,1.0,2.0,77,0.00,,,0.01,Wunderground v.1.15,2015-07-01 18:05:00,
2015-07-01 13:15:00,80.0,73.3,30.08,SW,231,1.0,1.0,80,0.00,,,0.01,Wunderground v.1.15,2015-07-01 18:15:00,
2015-07-01 13:20:00,79.9,73.5,30.08,WSW,238,1.0,1.0,81,0.00,,,0.01,Wunderground v.1.15,2015-07-01 18:20:00,
2015-07-01 13:25:00,79.8,74.2,30.08,SSE,148,1.0,2.0,83,0.00,,,0.01,Wunderground v.1.15,2015-07-01 18:25:00,
2015-07-01 13:32:00,79.4,74.0,30.08,SW,224,3.0,6.0,85,0.00,,,0.01,weatherlink.com 1.10,2015-07-01 18:32:00,
2015-07-01 13:40:00,79.5,74.9,30.07,SE,133,3.0,3.0,86,0.00,,,0.01,Wunderground v.1.15,2015-07-01 18:40:00,
2015-07-01 13:47:00,79.6,75.0,30.06,SW,222,2.0,5.0,85,0.00,,,0.01,weatherlink.com 1.10,2015-07-01 18:47:00,
2015-07-01 13:55:00,80.1,75.2,30.06,SE,131,1.0,2.0,85,0.00,,,0.01,Wunderground v.1.15,2015-07-01 18:55:00,
2015-07-01 14:02:00,80.6,76.0,30.05,SE,134,0.0,2.0,85,0.00,,,0.01,weatherlink.com 1.10,2015-07-01 19:02:00,
2015-07-01 14:10:00,80.8,75.9,30.05,SW,231,1.0,1.0,85,0.00,,,0.01,Wunderground v.1.15,2015-07-01 19:10:00,
2015-07-01 14:15:00,81.1,76.2,30.05,SE,136,1.0,1.0,85,0.00,,,0.01,Wunderground v.1.15,2015-07-01 19:15:00,
2015-07-01 14:20:00,81.4,76.1,30.05,SW,219,0.0,1.0,84,0.00,,,0.01,Wunderground v.1.15,2015-07-01 19:20:00,
2015-07-01 14:30:00,81.7,76.7,30.05,South,186,1.0,3.0,85,0.00,,,0.01,Wunderground v.1.15,2015-07-01 19:30:00,
2015-07-01 14:35:00,81.8,76.8,30.05,SSE,152,1.0,2.0,85,0.00,,,0.01,Wunderground v.1.15,2015-07-01 19:35:00,
2015-07-01 14:45:00,81.9,77.3,30.05,SE,125,0.0,1.0,86,0.00,,,0.01,Wunderground v.1.15,2015-07-01 19:45:00,
2015-07-01 14:50:00,82.1,77.5,30.05,South,179,0.0,1.0,86,0.00,,,0.01,Wunderground v.1.15,2015-07-01 19:50:00,
2015-07-01 14:55:00,82.2,77.6,30.05,SW,229,1.0,1.0,86,0.00,,,0.01,Wunderground v.1.15,2015-07-01 19:55:00,
2015-07-01 15:03:00,82.3,78.0,30.04,WSW,255,2.0,5.0,87,0.00,,,0.01,weatherlink.com 1.10,2015-07-01 20:03:00,
2015-07-01 15:10:00,82.6,78.3,30.05,SW,228,3.0,6.0,87,0.00,,,0.01,Wunderground v.1.15,2015-07-01 20:10:00,
2015-07-01 15:15:00,82.7,78.4,30.05,SW,229,4.0,5.0,87,0.00,,,0.01,Wunderground v.1.15,2015-07-01 20:15:00,
2015-07-01 15:25:00,83.1,78.8,30.04,SW,229,4.0,5.0,87,0.00,,,0.01,Wunderground v.1.15,2015-07-01 20:25:00,
2015-07-01 15:30:00,83.3,79.0,30.04,WSW,255,4.0,5.0,87,0.00,,,0.01,Wunderground v.1.15,2015-07-01 20:30:00,
2015-07-01 15:40:00,83.9,80.0,30.04,WSW,252,5.0,5.0,88,0.00,,,0.01,Wunderground v.1.15,2015-07-01 20:40:00,
2015-07-01 15:45:00,84.3,80.0,30.04,SW,224,5.0,10.0,87,0.00,,,0.01,Wunderground v.1.15,2015-07-01 20:45:00,
2015-07-01 15:50:00,84.8,80.1,30.04,SW,235,6.0,10.0,86,0.00,,,0.01,Wunderground v.1.15,2015-07-01 20:50:00,
2015-07-01 15:55:00,85.5,80.1,30.04,SW,221,6.0,9.0,84,0.00,,,0.01,Wunderground v.1.15,2015-07-01 20:55:00,
2015-07-01 16:02:00,86.1,81.0,30.04,SW,220,5.0,11.0,84,0.00,,,0.01,weatherlink.com 1.10,2015-07-01 21:02:00,
2015-07-01 16:10:00,86.9,80.4,30.04,SW,222,7.0,11.0,81,0.00,,,0.01,Wunderground v.1.15,2015-07-01 21:10:00,
2015-07-01 16:15:00,86.5,79.6,30.04,SSW,205,9.0,12.0,80,0.00,,,0.01,Wunderground v.1.15,2015-07-01 21:15:00,
2015-07-01 16:25:00,86.4,78.7,30.04,SW,235,8.0,12.0,78,0.00,,,0.01,Wunderground v.1.15,2015-07-01 21:25:00,
2015-07-01 16:30:00,86.6,79.7,30.05,SW,222,8.0,12.0,80,0.00,,,0.01,Wunderground v.1.15,2015-07-01 21:30:00,
2015-07-01 16:40:00,86.7,79.8,30.04,SSE,152,7.0,12.0,80,0.00,,,0.01,Wunderground v.1.15,2015-07-01 21:40:00,
2015-07-01 16:45:00,86.6,79.3,30.05,SW,219,8.0,10.0,79,0.00,,,0.01,Wunderground v.1.15,2015-07-01 21:45:00,
2015-07-01 16:55:00,86.5,79.6,30.04,WSW,239,7.0,7.0,80,0.00,,,0.01,Wunderground v.1.15,2015-07-01 21:55:00,
2015-07-01 17:00:00,86.5,79.2,30.04,SW,222,6.0,7.0,79,0.00,,,0.01,Wunderground v.1.15,2015-07-01 22:00:00,
2015-07-01 17:05:00,86.4,79.5,30.05,South,186,6.0,6.0,80,0.00,,,0.01,Wunderground v.1.15,2015-07-01 22:05:00,
2015-07-01 17:15:00,86.0,79.1,30.04,SSW,211,5.0,7.0,80,0.00,,,0.01,Wunderground v.1.15,2015-07-01 22:15:00,
2015-07-01 17:20:00,85.9,79.4,30.04,SW,224,4.0,7.0,81,0.00,,,0.01,Wunderground v.1.15,2015-07-01 22:20:00,
2015-07-01 17:25:00,85.7,79.2,30.04,SSW,203,4.0,4.0,81,0.00,,,0.01,Wunderground v.1.15,2015-07-01 22:25:00,
2015-07-01 17:31:00,85.4,79.0,30.04,SE,136,5.0,9.0,81,0.00,,,0.01,weatherlink.com 1.10,2015-07-01 22:31:00,
2015-07-01 17:40:00,85.2,78.7,30.04,SW,226,5.0,6.0,81,0.00,,,0.01,Wunderground v.1.15,2015-07-01 22:40:00,
2015-07-01 17:45:00,85.0,78.5,30.03,SSW,207,4.0,4.0,81,0.00,,,0.01,Wunderground v.1.15,2015-07-01 22:45:00,
2015-07-01 17:50:00,84.8,78.7,30.04,SSW,200,4.0,4.0,82,0.00,,,0.01,Wunderground v.1.15,2015-07-01 22:50:00,
2015-07-01 17:55:00,84.7,78.6,30.04,SSW,208,4.0,4.0,82,0.00,,,0.01,Wunderground v.1.15,2015-07-01 22:55:00,
2015-07-01 18:01:00,84.6,79.0,30.04,SSW,193,4.0,8.0,83,0.00,,,0.01,weatherlink.com 1.10,2015-07-01 23:01:00,
2015-07-01 18:10:00,84.4,78.7,30.03,SW,229,3.0,6.0,83,0.00,,,0.01,Wunderground v.1.15,2015-07-01 23:10:00,
2015-07-01 18:15:00,84.3,78.9,30.03,SSE,150,3.0,4.0,84,0.00,,,0.01,Wunderground v.1.15,2015-07-01 23:15:00,
2015-07-01 18:25:00,84.2,79.2,30.03,SSE,150,1.0,1.0,85,0.00,,,0.01,Wunderground v.1.15,2015-07-01 23:25:00,
2015-07-01 18:30:00,84.2,79.2,30.03,SE,131,1.0,1.0,85,0.00,,,0.01,Wunderground v.1.15,2015-07-01 23:30:00,
2015-07-01 18:35:00,84.1,79.1,30.03,SSW,205,1.0,3.0,85,0.00,,,0.01,Wunderground v.1.15,2015-07-01 23:35:00,
2015-07-01 18:45:00,84.0,79.4,30.03,SSW,210,2.0,2.0,86,0.00,,,0.01,Wunderground v.1.15,2015-07-01 23:45:00,
2015-07-01 18:50:00,84.1,79.5,30.03,SSW,203,1.0,2.0,86,0.00,,,0.01,Wunderground v.1.15,2015-07-01 23:50:00,
2015-07-01 19:00:00,83.9,78.9,30.04,SSE,159,4.0,5.0,85,0.00,,,0.01,Wunderground v.1.15,2015-07-02 00:00:00,
2015-07-01 19:10:00,83.8,78.4,30.04,SW,225,4.0,5.0,84,0.00,,,0.01,Wunderground v.1.15,2015-07-02 00:10:00,
2015-07-01 19:15:00,83.7,78.3,30.04,SW,229,5.0,5.0,84,0.00,,,0.01,Wunderground v.1.15,2015-07-02 00:15:00,
2015-07-01 19:20:00,83.3,76.5,30.05,SW,229,7.0,30.0,80,0.00,,,0.01,Wunderground v.1.15,2015-07-02 00:20:00,
2015-07-01 19:30:00,76.1,72.3,30.08,WNW,283,20.0,20.0,88,1.12,,,0.06,Wunderground v.1.15,2015-07-02 00:30:00,
2015-07-01 19:40:00,72.4,69.9,30.06,WNW,298,12.0,12.0,92,0.12,,,0.12,Wunderground v.1.15,2015-07-02 00:40:00,
2015-07-01 19:45:00,71.9,69.1,30.06,WNW,297,14.0,14.0,91,0.09,,,0.12,Wunderground v.1.15,2015-07-02 00:45:00,
2015-07-01 19:55:00,71.8,69.7,30.06,NW,320,12.0,13.0,93,0.04,,,0.12,Wunderground v.1.15,2015-07-02 00:55:00,
2015-07-01 20:00:00,71.8,70.0,30.06,NW,321,9.0,9.0,94,0.00,,,0.13,Wunderground v.1.15,2015-07-02 01:00:00,
2015-07-01 20:05:00,71.8,70.0,30.06,WNW,292,5.0,5.0,94,0.00,,,0.13,Wunderground v.1.15,2015-07-02 01:05:00,
2015-07-01 20:15:00,71.7,69.9,30.06,NE,34,2.0,4.0,94,0.00,,,0.13,Wunderground v.1.15,2015-07-02 01:15:00,
2015-07-01 20:20:00,71.6,70.1,30.07,South,177,2.0,4.0,95,0.04,,,0.14,Wunderground v.1.15,2015-07-02 01:20:00,